[[{"header":{"parameterUnit":"m.s-1","parameterCategory":2,"la1":30.2991,"la2":30.254,"lo1":-89.0895,"lo2":-89.0444,"dy":0.0017,"dx":0.0017,"nx":28,"ny":28,"refTime":"2024-05-09T21:00:00:Z","depth":"0","parameterNumber":2,"parameterNumberName":"U-component_of_CURRENTS"},"data":[0,0,0,0,0,0,0,0,0,0,0,0,0,0,0,0,0,0,0,0,0,0,0,0,0,0,0,0,0,0,0,0,0,0,0,0,0,0,0,0,0,0,0,0,0,0,0,0,0,0,0,0,0,0,0,0,0,0,0.2648,0.2649,0,0.2685,0.2686,0.2686,0.2682,0.2681,0.2681,0.268,0.2723,0.2725,0.2726,0,0,0,0,0,0,0,0,0,0,0,0,0,0.2627,0.2627,0.2648,0.2649,0.265,0.2685,0.2686,0.2686,0.2682,0.2681,0.268,0.268,0.2722,0.2724,0.2726,0,0,0,0,0,0,0,0,0,0,0,0,0,0.2646,0.2627,0.2648,0.2652,0.2653,0.2685,0.2686,0.2686,0.2682,0.2681,0.268,0.268,0.2722,0.2724,0.2727,0.2757,0,0,0.2734,0.2735,0,0,0,0,0,0,0,0,0.2645,0.2647,0.2651,0.2652,0.2653,0.2679,0.2694,0.2711,0.2682,0.267,0.268,0.2679,0.271,0.2713,0.2721,0.2759,0.2761,0.2734,0.2736,0.2737,0.2737,0,0,0,0,0,0,0,0.2644,0.2646,0.2662,0.2652,0.2653,0.2671,0.2672,0.2697,0.2693,0.2671,0.2671,0.2677,0.271,0.2718,0.2722,0.2761,0.2734,0.2736,0.2738,0.2739,0.2864,0.2866,0,0,0,0,0,0,0.2639,0.2644,0.2661,0.2663,0.2648,0.2671,0.2673,0.2671,0.2693,0.2696,0.2677,0.2676,0.2714,0.2719,0.2723,0.2797,0.2737,0.2739,0.274,0.2862,0.2864,0.2866,0,0,0,0,0,0,0.2638,0.264,0.2659,0.2656,0.266,0.2672,0.267,0.2672,0.2683,0.2698,0.27,0.2687,0.2714,0.272,0.2755,0.2797,0.274,0.2742,0.286,0.2863,0.2865,0.2921,0,0,0,0,0,0,0.2637,0.2639,0.2641,0.2655,0.266,0.2686,0.2671,0.2673,0.2688,0.2687,0.2707,0.271,0.2714,0.2752,0.2758,0.2799,0.2744,0.2857,0.2861,0.2864,0.2917,0.2925,0.2933,0,0,0,0,0,0.2636,0.2641,0.264,0.2643,0.2659,0.2687,0.2691,0.2697,0.2689,0.2702,0.2716,0.2709,0.2778,0.2755,0.2762,0.2805,0.2856,0.286,0.2864,0.2913,0.2924,0.2933,0,0,0,0,0,0,0.2633,0.2641,0.2641,0.2647,0.2669,0.2686,0.2699,0.2703,0.2724,0.2722,0.2729,0.2735,0.2788,0.2787,0.2761,0.2852,0.2818,0.2824,0.2854,0.2863,0.2871,0.2858,0.2746,0,0,0,0,0,0.2633,0.2636,0.2654,0.2661,0.2671,0.2686,0.2699,0.2705,0.2724,0.2731,0.2745,0.2769,0.2812,0.2826,0.2858,0.29,0.2895,0.2934,0.2942,0.2949,0.2944,0.2982,0.2993,0.288,0.288,0.288,0,0,0.2633,0.264,0.2641,0.2661,0.2675,0.2701,0.2692,0.2714,0.2741,0.2735,0.2772,0.28,0.2831,0.2886,0.2909,0.2887,0.2979,0.2954,0.296,0.2951,0.2988,0.2999,0.3008,0.2883,0.2882,0.2882,0,0,0.2641,0.2642,0.2651,0.2672,0.2698,0.2714,0.2723,0.2747,0.2762,0.2802,0.2817,0.2862,0.2907,0.2945,0.297,0.3039,0.3025,0.3054,0.3079,0.3117,0.3126,0.3134,0.3138,0.3145,0.3052,0.3052,0.3052,0,0.2643,0.2649,0.2661,0.2684,0.2701,0.2722,0.2745,0.2775,0.2808,0.2831,0.2819,0.2914,0.2939,0.3022,0.3046,0.3058,0.306,0.3039,0.3126,0.3134,0.3141,0.3143,0.3151,0.3055,0.3055,0.3054,0.3054,0,0.2658,0.2669,0.268,0.2711,0.274,0.2761,0.2803,0.2835,0.2853,0.2881,0.2955,0.2992,0.3043,0.3073,0.308,0.3159,0.3137,0.3137,0.3098,0.3156,0.3154,0.3161,0.306,0.3058,0.3058,0.3057,0,0,0.2639,0.2679,0.2683,0.2695,0.275,0.2771,0.2834,0.2889,0.2927,0.2972,0.3022,0.3106,0.3118,0.3147,0.3174,0.3205,0.3261,0.3189,0.3189,0.3183,0.3322,0.3254,0.3255,0.3276,0.3278,0.3279,0.3297,0,0.2643,0.2674,0.2701,0.2739,0.2758,0.2806,0.286,0.2921,0.297,0.3027,0.3086,0.3145,0.3152,0.3179,0.322,0.326,0.3284,0.3254,0.3273,0.3273,0.3199,0.3262,0.3129,0.313,0.3304,0.3305,0.3306,0,0.2642,0.2664,0.2693,0.2743,0.2756,0.2791,0.2872,0.2926,0.3027,0.3066,0.314,0.3178,0.3258,0.3239,0.3326,0.3306,0.3314,0.3329,0.333,0.3249,0.3219,0.3103,0.3136,0.3076,0.3317,0.3316,0.3315,0,0.2606,0.2654,0.2669,0.2687,0.2756,0.2785,0.2834,0.2935,0.2991,0.3093,0.3142,0.3228,0.3282,0.3317,0.336,0.3343,0.3431,0.3412,0.3354,0.3348,0.3227,0.3207,0.3195,0.3455,0.3455,0.3455,0.3455,0,0.2587,0.2597,0.2649,0.2656,0.2692,0.2759,0.2819,0.2886,0.2994,0.3065,0.3155,0.3222,0.3305,0.3367,0.3377,0.3394,0.3449,0.3363,0.3358,0.3242,0.3224,0.3159,0.3138,0.3456,0.3455,0.3455,0.3455,0,0.2538,0.2568,0.2588,0.265,0.267,0.2701,0.2802,0.2851,0.2964,0.3061,0.3095,0.3236,0.3312,0.3375,0.344,0.3418,0.3334,0.342,0.3262,0.3238,0.309,0.3076,0.2902,0.2827,0.3339,0.3338,0.3337,0,0.2511,0.2514,0.2567,0.258,0.2603,0.2661,0.2703,0.2821,0.2884,0.3063,0.3101,0.3221,0.3286,0.3364,0.3347,0.3345,0.328,0.3213,0.3156,0.3069,0.3051,0.2917,0.2858,0.3017,0.3013,0.301,0.3008,0,0.2463,0.2479,0.2494,0.2523,0.2553,0.2598,0.267,0.2713,0.2858,0.2937,0.3047,0.3113,0.3212,0.3166,0.3185,0.3167,0.3047,0.3148,0.3111,0.284,0.2639,0.2569,0.3005,0.2981,0.2984,0.2986,0.2987,0.2988,0.2421,0.2418,0.2437,0.245,0.2483,0.251,0.2514,0.2596,0.2662,0.275,0.2903,0.2948,0.3006,0.3007,0.2978,0.2856,0.2843,0.2759,0.2761,0.2642,0.2524,0.2883,0.2824,0.2826,0.2827,0.2829,0.283,0,0.2359,0.2357,0.2367,0.2369,0.2355,0.2413,0.2462,0.2445,0.2454,0.258,0.2647,0.2691,0.2652,0.2688,0.2614,0.2501,0.2377,0.2434,0.2237,0.2212,0.2586,0.2529,0.2338,0.2338,0.2338,0.2338,0.2338,0.2338,0.2329,0.2298,0.229,0.2231,0.223,0.2187,0.2186,0.2174,0.2229,0.2235,0.226,0.2336,0.2454,0.2434,0.2321,0.2261,0.211,0.1959,0.1997,0.2303,0.2334,0.2363,0.2306,0.2071,0.2071,0.1505,0.1501,0.1498]},{"header":{"parameterUnit":"m.s-1","parameterCategory":2,"la1":30.2991,"la2":30.254,"lo1":-89.0895,"lo2":-89.0444,"dy":0.0017,"dx":0.0017,"nx":28,"ny":28,"refTime":"2024-05-09T21:00:00:Z","depth":"0","parameterNumber":3,"parameterNumberName":"V-component_of_CURRENTS"},"data":[0,0,0,0,0,0,0,0,0,0,0,0,0,0,0,0,0,0,0,0,0,0,0,0,0,0,0,0,0,0,0,0,0,0,0,0,0,0,0,0,0,0,0,0,0,0,0,0,0,0,0,0,0,0,0,0,0,0,0.0303,0.0303,0,0.0278,0.0278,0.0277,0.0256,0.0256,0.0256,0.0256,0.0215,0.0214,0.0213,0,0,0,0,0,0,0,0,0,0,0,0,0,0.0297,0.0297,0.0303,0.0303,0.0302,0.0278,0.0278,0.0277,0.0256,0.0256,0.0256,0.0256,0.0216,0.0214,0.0213,0,0,0,0,0,0,0,0,0,0,0,0,0,0.0288,0.0297,0.0303,0.0289,0.0288,0.0278,0.0278,0.0277,0.0256,0.0256,0.0256,0.0255,0.0216,0.0215,0.0213,0.021,0,0,0.0209,0.0208,0,0,0,0,0,0,0,0,0.0288,0.0288,0.0292,0.029,0.0289,0.0271,0.0261,0.0254,0.0256,0.0268,0.0256,0.0255,0.0233,0.023,0.0225,0.0208,0.0207,0.0209,0.0208,0.0208,0.0207,0,0,0,0,0,0,0,0.0289,0.0289,0.0292,0.0291,0.029,0.0273,0.0271,0.0259,0.0251,0.0267,0.0265,0.0264,0.0232,0.0227,0.0224,0.0206,0.0209,0.0208,0.0207,0.0206,0.0192,0.0192,0,0,0,0,0,0,0.0296,0.029,0.0293,0.0292,0.0289,0.0273,0.0272,0.0276,0.0252,0.0248,0.0264,0.0263,0.0229,0.0226,0.0223,0.0239,0.0208,0.0206,0.0205,0.0191,0.0192,0.0192,0,0,0,0,0,0,0.0296,0.0297,0.0294,0.029,0.0289,0.0274,0.0279,0.0276,0.0273,0.025,0.0246,0.0265,0.0229,0.0225,0.0219,0.0236,0.0206,0.0204,0.0191,0.0191,0.0192,0.0257,0,0,0,0,0,0,0.0296,0.0297,0.0303,0.0291,0.0289,0.0297,0.0279,0.0275,0.0273,0.0271,0.0249,0.0245,0.0228,0.0221,0.0218,0.0234,0.0203,0.019,0.0191,0.0192,0.0254,0.0259,0.0264,0,0,0,0,0,0.0296,0.0307,0.0303,0.0303,0.0298,0.0297,0.0295,0.0282,0.0273,0.0278,0.0262,0.0246,0.0223,0.0221,0.0216,0.0232,0.019,0.0191,0.0192,0.0252,0.0258,0.0264,0,0,0,0,0,0,0.0306,0.0306,0.0301,0.0311,0.0308,0.0294,0.0297,0.0287,0.0278,0.0277,0.0252,0.0247,0.0248,0.0229,0.0226,0.0229,0.0204,0.0204,0.0251,0.0257,0.0262,0.028,0.0202,0,0,0,0,0,0.0312,0.0322,0.0315,0.0324,0.0325,0.0312,0.0309,0.0302,0.0292,0.0288,0.0273,0.0257,0.0248,0.0244,0.0231,0.0233,0.0214,0.0239,0.0244,0.0249,0.026,0.0247,0.0252,0.0195,0.0195,0.0195,0,0,0.0318,0.032,0.0324,0.0327,0.0323,0.0336,0.031,0.0313,0.0325,0.0285,0.0295,0.0273,0.0252,0.0256,0.0254,0.0243,0.0253,0.025,0.0254,0.0263,0.0248,0.0254,0.0259,0.0196,0.0196,0.0196,0,0,0.034,0.0338,0.0356,0.0358,0.0359,0.0354,0.0358,0.0349,0.0346,0.035,0.0326,0.0317,0.0301,0.0293,0.0286,0.0309,0.0279,0.0302,0.0346,0.0333,0.0338,0.0342,0.0319,0.0321,0.0306,0.0307,0.0307,0,0.0347,0.0372,0.036,0.0379,0.039,0.0367,0.0392,0.0386,0.0376,0.0386,0.0362,0.0347,0.0322,0.0336,0.0341,0.0323,0.0306,0.0327,0.0341,0.0344,0.0348,0.0323,0.0324,0.031,0.0309,0.0309,0.0309,0,0.0386,0.0405,0.0417,0.0438,0.0444,0.0461,0.0457,0.0462,0.0453,0.0451,0.0457,0.042,0.0413,0.0401,0.0377,0.0391,0.0368,0.0349,0.0329,0.0357,0.0329,0.0329,0.0315,0.0313,0.0312,0.0312,0,0,0.0408,0.0439,0.0445,0.047,0.048,0.0494,0.0514,0.0536,0.0565,0.0538,0.0568,0.0536,0.0513,0.0502,0.0466,0.0452,0.0448,0.0413,0.0411,0.0398,0.0414,0.0397,0.0395,0.0432,0.0432,0.0433,0.0384,0,0.0446,0.05,0.0503,0.0556,0.0586,0.0578,0.0607,0.062,0.0623,0.0643,0.0605,0.0611,0.0552,0.0547,0.0525,0.0472,0.0451,0.0462,0.0383,0.038,0.0368,0.0396,0.0426,0.0386,0.0383,0.0383,0.0383,0,0.0489,0.0523,0.0581,0.0632,0.0645,0.0669,0.0719,0.0743,0.076,0.0762,0.0754,0.0718,0.0691,0.0632,0.0558,0.0568,0.0498,0.0448,0.0445,0.041,0.0364,0.0357,0.0385,0.0316,0.0383,0.0383,0.0383,0,0.0525,0.0581,0.0633,0.0649,0.0697,0.0723,0.075,0.0782,0.0826,0.0836,0.0864,0.0814,0.0799,0.0709,0.0592,0.0577,0.0507,0.0472,0.0389,0.0386,0.0387,0.0384,0.0347,0.0419,0.0419,0.0419,0.0419,0,0.0571,0.0614,0.0655,0.0684,0.076,0.0772,0.0853,0.0873,0.0918,0.0992,0.0928,0.096,0.0819,0.0755,0.0633,0.0517,0.0534,0.0407,0.038,0.0409,0.0408,0.0327,0.0273,0.0417,0.0418,0.0418,0.0418,0,0.0603,0.0628,0.0694,0.0751,0.0779,0.0833,0.0923,0.0984,0.1015,0.1104,0.1108,0.1075,0.0998,0.0847,0.0704,0.0583,0.0416,0.0409,0.0446,0.0425,0.0282,0.0231,0.015,0.0112,0.0317,0.0316,0.0316,0,0.0625,0.0661,0.0744,0.0793,0.082,0.0904,0.0971,0.1028,0.1101,0.1185,0.1233,0.1181,0.1175,0.0953,0.0726,0.0515,0.0414,0.0387,0.0362,0.0291,0.0214,0.0178,0.0149,0.0381,0.0381,0.0381,0.0381,0,0.0665,0.069,0.0745,0.0848,0.0922,0.1022,0.1118,0.1194,0.1279,0.136,0.1446,0.1445,0.1245,0.1059,0.0758,0.0594,0.035,0.0381,0.0307,0.0266,0.0227,0.0172,0.0385,0.0382,0.0382,0.0382,0.0382,0.0382,0.0693,0.0738,0.0811,0.091,0.1003,0.1127,0.1223,0.1336,0.1475,0.1612,0.1602,0.1648,0.1374,0.098,0.0744,0.037,0.0353,0.0267,0.021,0.0181,0.015,0.0359,0.0327,0.0326,0.0326,0.0326,0.0326,0,0.0728,0.0783,0.0872,0.0992,0.1096,0.1144,0.1315,0.1424,0.16,0.1729,0.1811,0.1739,0.1401,0.1032,0.0528,0.0266,0.0162,0.0123,0.009,0.0066,0.0259,0.0271,0.0228,0.0228,0.0228,0.0228,0.0228,0.0228,0.0748,0.083,0.0877,0.1046,0.1136,0.1293,0.1397,0.1568,0.1705,0.1891,0.1956,0.1978,0.175,0.0841,0.0283,0.0138,-0.0026,-0.0078,-0.0165,-0.0019,-0.0009,-0.0,0.0,-0.0099,-0.0099,-0.0307,-0.0309,-0.0311]}],[{"header":{"parameterUnit":"m.s-1","parameterCategory":2,"la1":30.2991,"la2":30.254,"lo1":-89.0895,"lo2":-89.0444,"dy":0.0017,"dx":0.0017,"nx":28,"ny":28,"refTime":"2024-05-09T21:00:00:Z","depth":"2","parameterNumber":2,"parameterNumberName":"U-component_of_CURRENTS"},"data":[0,0,0,0,0,0,0,0,0,0,0,0,0,0,0,0,0,0,0,0,0,0,0,0,0,0,0,0,0,0,0,0,0,0,0,0,0,0,0,0,0,0,0,0,0,0,0,0,0,0,0,0,0,0,0,0,0,0,0.2393,0.2394,0,0.2401,0.2401,0.2401,0.2393,0.2393,0.2393,0.2392,0.2414,0.2415,0.2416,0,0,0,0,0,0,0,0,0,0,0,0,0,0.2393,0.2392,0.2393,0.2394,0.2394,0.2401,0.2401,0.2401,0.2393,0.2393,0.2393,0.2392,0.2414,0.2415,0.2416,0,0,0,0,0,0,0,0,0,0,0,0,0,0.2394,0.2392,0.2393,0.2392,0.2392,0.2401,0.2401,0.2401,0.2393,0.2393,0.2392,0.2392,0.2414,0.2415,0.2416,0.2427,0,0,0.2419,0.242,0,0,0,0,0,0,0,0,0.2394,0.2394,0.2392,0.2392,0.2393,0.2397,0.2409,0.2411,0.2393,0.2391,0.2392,0.2392,0.2411,0.2413,0.2412,0.2428,0.2429,0.2419,0.242,0.242,0.2421,0,0,0,0,0,0,0,0.2394,0.2394,0.2395,0.2393,0.2393,0.2399,0.2398,0.2409,0.2401,0.2391,0.2391,0.2395,0.2411,0.2411,0.2412,0.2429,0.2419,0.242,0.2421,0.2421,0.251,0.2511,0,0,0,0,0,0,0.2396,0.2393,0.2394,0.2395,0.2395,0.2399,0.2398,0.2394,0.24,0.2402,0.2395,0.2394,0.2409,0.2411,0.2413,0.2476,0.242,0.2421,0.2422,0.2508,0.251,0.2512,0,0,0,0,0,0,0.2396,0.2395,0.2394,0.2396,0.2397,0.2399,0.2395,0.2395,0.2405,0.2404,0.2405,0.2406,0.2409,0.2411,0.2436,0.2475,0.2422,0.2423,0.2506,0.2509,0.2511,0.257,0,0,0,0,0,0,0.2395,0.2395,0.2398,0.2396,0.2397,0.241,0.2395,0.2395,0.2408,0.2407,0.2414,0.2415,0.2409,0.2434,0.2437,0.2475,0.2424,0.2504,0.2507,0.251,0.2566,0.2574,0.2581,0,0,0,0,0,0.2395,0.2398,0.2398,0.2399,0.2399,0.2411,0.2412,0.2411,0.2409,0.2418,0.2424,0.2415,0.2457,0.2436,0.2439,0.2479,0.2502,0.2506,0.251,0.2562,0.2573,0.2581,0,0,0,0,0,0,0.2399,0.2398,0.2397,0.24,0.2411,0.241,0.2419,0.2421,0.2432,0.2434,0.243,0.2432,0.2474,0.2467,0.2444,0.2515,0.2482,0.2486,0.2521,0.253,0.2538,0.2533,0.2425,0,0,0,0,0,0.2402,0.2403,0.2408,0.2412,0.2419,0.2422,0.2429,0.2431,0.2439,0.2444,0.2449,0.2463,0.2491,0.2501,0.2518,0.2549,0.2545,0.2579,0.2587,0.2594,0.2593,0.2628,0.2639,0.2525,0.2525,0.2525,0,0,0.2404,0.2405,0.2405,0.2414,0.242,0.2436,0.2426,0.2441,0.246,0.2446,0.2474,0.2492,0.2507,0.2547,0.2565,0.2545,0.2625,0.2599,0.2604,0.2599,0.2634,0.2645,0.2654,0.2527,0.2527,0.2526,0,0,0.2411,0.2412,0.2418,0.243,0.2447,0.2452,0.2462,0.2472,0.2484,0.2513,0.2519,0.2556,0.2581,0.2605,0.262,0.2681,0.2669,0.2694,0.2725,0.276,0.277,0.2778,0.2785,0.2794,0.2693,0.2693,0.2693,0,0.2417,0.2417,0.2424,0.2439,0.245,0.2463,0.2478,0.2498,0.2517,0.2536,0.2529,0.2598,0.2611,0.2673,0.2696,0.27,0.2705,0.2687,0.277,0.2778,0.2785,0.2791,0.2799,0.2697,0.2696,0.2696,0.2696,0,0.2426,0.2433,0.2441,0.2461,0.2481,0.2494,0.2522,0.2549,0.2566,0.2585,0.2647,0.267,0.2709,0.2732,0.2731,0.2802,0.2785,0.2779,0.2743,0.28,0.2802,0.281,0.2701,0.27,0.2699,0.2698,0,0,0.2413,0.2439,0.2442,0.245,0.2489,0.2501,0.2551,0.259,0.2623,0.2661,0.2705,0.2769,0.2785,0.2804,0.2822,0.2852,0.2912,0.2839,0.2839,0.284,0.2975,0.2904,0.2905,0.2924,0.2925,0.2927,0.2955,0,0.2414,0.2434,0.2453,0.2478,0.2489,0.2527,0.2569,0.2616,0.2658,0.2707,0.2757,0.2807,0.2813,0.2841,0.2879,0.291,0.2936,0.2904,0.2924,0.2925,0.285,0.2914,0.2681,0.2682,0.2962,0.2963,0.2964,0,0.241,0.2424,0.2443,0.2478,0.2488,0.2514,0.2579,0.2622,0.2708,0.2744,0.2812,0.2845,0.2919,0.2904,0.2985,0.2965,0.2975,0.2987,0.2988,0.2904,0.2868,0.2671,0.2685,0.2977,0.2975,0.2975,0.2974,0,0.238,0.2413,0.2422,0.2434,0.2485,0.2511,0.255,0.2634,0.2683,0.2775,0.2822,0.2898,0.2954,0.2986,0.3027,0.301,0.3095,0.3071,0.3013,0.3007,0.2802,0.2775,0.3117,0.3117,0.3117,0.3117,0.3117,0,0.236,0.2366,0.2407,0.2411,0.2439,0.2492,0.2544,0.2602,0.2697,0.2756,0.284,0.2899,0.2981,0.3039,0.3047,0.3061,0.3116,0.3026,0.3018,0.2815,0.2791,0.3038,0.3028,0.3118,0.3117,0.3117,0.3117,0,0.2318,0.2342,0.2354,0.2403,0.2421,0.2448,0.2536,0.2575,0.268,0.2765,0.2799,0.2925,0.2996,0.3056,0.3116,0.309,0.31,0.3086,0.2833,0.2794,0.2975,0.2968,0.3011,0.3009,0.3008,0.3006,0.3005,0,0.2294,0.2295,0.2338,0.2348,0.2367,0.2418,0.2451,0.2556,0.2605,0.2767,0.2796,0.2914,0.2966,0.3038,0.3009,0.3004,0.3077,0.2779,0.2704,0.2981,0.2969,0.2965,0.2961,0.2452,0.2446,0.2441,0.2438,0,0.225,0.2266,0.2276,0.2298,0.2323,0.2355,0.2414,0.2449,0.2573,0.2643,0.2733,0.2792,0.2877,0.2774,0.279,0.2753,0.2759,0.2684,0.3053,0.252,0.2457,0.2444,0.2458,0.2396,0.2401,0.2404,0.2406,0.2407,0.2215,0.221,0.2224,0.2233,0.2258,0.2268,0.2262,0.2325,0.2376,0.2445,0.2578,0.2583,0.2613,0.2513,0.2429,0.2361,0.2547,0.2421,0.2433,0.2451,0.2388,0.2326,0.2227,0.223,0.2232,0.2235,0.2237,0,0.2157,0.2153,0.2158,0.2151,0.2129,0.2183,0.2207,0.2175,0.2168,0.2263,0.2312,0.2141,0.2078,0.2108,0.1936,0.1925,0.1891,0.1844,0.1777,0.182,0.1858,0.1762,0.1436,0.1434,0.1431,0.1429,0,0,0.2129,0.2096,0.2084,0.2015,0.2011,0.1955,0.1944,0.191,0.1934,0.1894,0.1877,0.203,0.2078,0.1746,0.1689,0.1535,0.1669,0.1475,0.2123,0.2091,0.2125,0.2202,0.2105,0,0,0,0,0]},{"header":{"parameterUnit":"m.s-1","parameterCategory":2,"la1":30.2991,"la2":30.254,"lo1":-89.0895,"lo2":-89.0444,"dy":0.0017,"dx":0.0017,"nx":28,"ny":28,"refTime":"2024-05-09T21:00:00:Z","depth":"2","parameterNumber":3,"parameterNumberName":"V-component_of_CURRENTS"},"data":[0,0,0,0,0,0,0,0,0,0,0,0,0,0,0,0,0,0,0,0,0,0,0,0,0,0,0,0,0,0,0,0,0,0,0,0,0,0,0,0,0,0,0,0,0,0,0,0,0,0,0,0,0,0,0,0,0,0,0.0204,0.0204,0,0.0179,0.0178,0.0178,0.0159,0.0158,0.0158,0.0158,0.0119,0.0118,0.0117,0,0,0,0,0,0,0,0,0,0,0,0,0,0.0202,0.0202,0.0204,0.0204,0.0204,0.0179,0.0178,0.0178,0.0159,0.0158,0.0158,0.0158,0.0119,0.0118,0.0117,0,0,0,0,0,0,0,0,0,0,0,0,0,0.0192,0.0202,0.0204,0.0191,0.019,0.0179,0.0178,0.0178,0.0159,0.0158,0.0158,0.0158,0.012,0.0118,0.0117,0.0112,0,0,0.0113,0.0112,0,0,0,0,0,0,0,0,0.0192,0.0192,0.0194,0.0192,0.0191,0.0172,0.0163,0.0155,0.0159,0.017,0.0158,0.0158,0.0136,0.0133,0.0128,0.011,0.0108,0.0113,0.0112,0.0111,0.0111,0,0,0,0,0,0,0,0.0193,0.0192,0.0193,0.0193,0.0192,0.0175,0.0174,0.0161,0.0154,0.0169,0.0168,0.0166,0.0135,0.013,0.0127,0.0108,0.0113,0.0111,0.011,0.011,0.0094,0.0094,0,0,0,0,0,0,0.0199,0.0193,0.0194,0.0193,0.0192,0.0176,0.0174,0.0178,0.0154,0.015,0.0166,0.0165,0.0132,0.0129,0.0126,0.0139,0.0111,0.011,0.0109,0.0094,0.0094,0.0095,0,0,0,0,0,0,0.02,0.02,0.0195,0.0192,0.0191,0.0176,0.018,0.0177,0.0176,0.0152,0.0148,0.0168,0.0132,0.0128,0.0122,0.0137,0.0109,0.0108,0.0093,0.0094,0.0094,0.0153,0,0,0,0,0,0,0.02,0.02,0.0206,0.0193,0.0191,0.0196,0.018,0.0177,0.0175,0.0173,0.0152,0.0148,0.0131,0.0125,0.0121,0.0134,0.0107,0.0093,0.0093,0.0094,0.015,0.0155,0.016,0,0,0,0,0,0.02,0.021,0.0207,0.0207,0.0199,0.0197,0.0195,0.0183,0.0175,0.0179,0.0165,0.0149,0.0127,0.0124,0.012,0.0133,0.0092,0.0093,0.0094,0.0148,0.0154,0.016,0,0,0,0,0,0,0.021,0.0209,0.0205,0.0213,0.0209,0.0194,0.0197,0.0188,0.0179,0.0179,0.0155,0.015,0.015,0.0132,0.013,0.0129,0.0107,0.0107,0.0149,0.0155,0.0159,0.0177,0.0106,0,0,0,0,0,0.0216,0.0225,0.0218,0.0225,0.0226,0.0212,0.021,0.0203,0.0193,0.0189,0.0175,0.0159,0.015,0.0145,0.0132,0.0133,0.0114,0.0138,0.0143,0.0147,0.0157,0.014,0.0144,0.0098,0.0098,0.0098,0,0,0.0221,0.0223,0.0227,0.0228,0.0224,0.0235,0.0211,0.0213,0.0223,0.0187,0.0195,0.0175,0.0153,0.0155,0.0154,0.0143,0.0148,0.0148,0.0152,0.016,0.0141,0.0146,0.015,0.0098,0.0098,0.0098,0,0,0.0241,0.024,0.0256,0.0257,0.0258,0.0252,0.0256,0.0246,0.0244,0.0247,0.0225,0.0215,0.0199,0.0189,0.0181,0.0203,0.0173,0.0196,0.0236,0.0219,0.0223,0.0226,0.0204,0.0204,0.02,0.02,0.02,0,0.0248,0.027,0.0259,0.0276,0.0285,0.0265,0.0286,0.0281,0.0271,0.0278,0.0259,0.0241,0.0218,0.0226,0.0232,0.0215,0.0198,0.0219,0.0226,0.0229,0.0231,0.0207,0.0207,0.0203,0.0203,0.0202,0.0202,0,0.0282,0.0299,0.031,0.0328,0.0334,0.0349,0.0344,0.0349,0.0342,0.0338,0.0341,0.0306,0.0299,0.0286,0.0266,0.0274,0.0253,0.0234,0.0215,0.024,0.0212,0.0211,0.0207,0.0206,0.0205,0.0205,0,0,0.0302,0.0329,0.0335,0.0358,0.0367,0.0379,0.0396,0.0414,0.0439,0.0414,0.0438,0.0408,0.0388,0.0377,0.0344,0.0327,0.032,0.0292,0.029,0.0275,0.0279,0.0262,0.0259,0.0302,0.0302,0.0303,0.0252,0,0.0336,0.0384,0.0386,0.0433,0.0461,0.0454,0.0479,0.0489,0.0492,0.0507,0.0469,0.0474,0.0423,0.0419,0.0395,0.0343,0.0321,0.0335,0.0253,0.0251,0.0237,0.0259,0.0268,0.0224,0.0251,0.0251,0.0251,0,0.0374,0.0404,0.0457,0.0503,0.0515,0.0536,0.0581,0.0602,0.0614,0.0615,0.0605,0.0571,0.0544,0.0491,0.0416,0.0428,0.0362,0.0313,0.0309,0.0275,0.0233,0.0203,0.0221,0.0249,0.0249,0.0249,0.0249,0,0.0407,0.0457,0.0505,0.0519,0.0562,0.0585,0.0611,0.0638,0.0677,0.0683,0.0707,0.0657,0.0642,0.0555,0.0446,0.0433,0.0358,0.0324,0.0245,0.0242,0.0225,0.0221,0.027,0.027,0.027,0.0271,0.0271,0,0.0449,0.0487,0.0525,0.0551,0.0622,0.0632,0.0706,0.0724,0.0762,0.0826,0.0767,0.0792,0.0659,0.0595,0.048,0.0366,0.038,0.026,0.0234,0.0244,0.0243,0.0244,0.0242,0.0269,0.0269,0.0269,0.027,0,0.048,0.0502,0.0561,0.0614,0.064,0.0691,0.0773,0.0828,0.0854,0.0931,0.0935,0.0898,0.082,0.0677,0.0538,0.0424,0.0303,0.0254,0.0272,0.0249,0.0187,0.0188,0.0164,0.0163,0.0163,0.0162,0.0162,0,0.05,0.0533,0.061,0.0655,0.0681,0.0759,0.0822,0.0872,0.0936,0.1004,0.1044,0.0991,0.0974,0.0757,0.0545,0.0344,0.0309,0.0206,0.0182,0.0203,0.0179,0.0181,0.0184,0.0175,0.0175,0.0175,0.0174,0,0.0539,0.0562,0.0613,0.0709,0.0777,0.0869,0.0957,0.1023,0.1096,0.1164,0.123,0.1219,0.1024,0.0827,0.0543,0.0395,0.0237,0.0194,0.0218,0.0204,0.021,0.0188,0.019,0.0172,0.0172,0.0172,0.0172,0.0172,0.0567,0.0609,0.0676,0.0768,0.0854,0.0965,0.1051,0.1148,0.1268,0.1373,0.1358,0.135,0.1114,0.0762,0.0505,0.0227,0.0246,0.0133,0.0135,0.0138,0.0152,0.0156,0.011,0.011,0.0109,0.0109,0.0109,0,0.0602,0.0652,0.0734,0.0842,0.0937,0.0984,0.1134,0.1222,0.1369,0.1455,0.1512,0.1292,0.1069,0.079,0.0392,0.0157,0.0128,0.0061,0.0084,0.0089,0.0092,0.0104,0.0049,0.0048,0.0048,0.0047,0,0,0.062,0.0694,0.0735,0.0889,0.0973,0.1114,0.1206,0.1339,0.1435,0.1525,0.1525,0.1492,0.1163,0.086,0.0532,0.0298,0.0244,0.0237,0.0311,0.0383,0.039,0.0159,0.0186,0,0,0,0,0]}],[{"header":{"parameterUnit":"m.s-1","parameterCategory":2,"la1":30.2991,"la2":30.254,"lo1":-89.0895,"lo2":-89.0444,"dy":0.0017,"dx":0.0017,"nx":28,"ny":28,"refTime":"2024-05-09T21:00:00:Z","depth":"4","parameterNumber":2,"parameterNumberName":"U-component_of_CURRENTS"},"data":[0,0,0,0,0,0,0,0,0,0,0,0,0,0,0,0,0,0,0,0,0,0,0,0,0,0,0,0,0,0,0,0,0,0,0,0,0,0,0,0,0,0,0,0,0,0,0,0,0,0,0,0,0,0,0,0,0,0,0.1613,0.1613,0,0.1612,0.1612,0.1612,0.1632,0.1633,0.1634,0.1634,0.1651,0.1651,0.165,0,0,0,0,0,0,0,0,0,0,0,0,0,0.1601,0.1601,0.1613,0.1613,0.1613,0.1612,0.1612,0.1612,0.1632,0.1633,0.1634,0.1635,0.1651,0.1651,0.165,0,0,0,0,0,0,0,0,0,0,0,0,0,0.1601,0.1601,0.1613,0.1625,0.1627,0.1612,0.1612,0.1612,0.1632,0.1633,0.1634,0.1635,0.1651,0.1651,0.165,0.1623,0,0,0.1649,0.1649,0,0,0,0,0,0,0,0,0.1601,0.1601,0.1623,0.1625,0.1626,0.1626,0.1614,0.1617,0.1631,0.1627,0.1634,0.1636,0.1645,0.1645,0.1638,0.1624,0.1625,0.1649,0.1648,0.1648,0.1648,0,0,0,0,0,0,0,0.1601,0.1601,0.161,0.1624,0.1625,0.1621,0.1622,0.1614,0.1627,0.1627,0.1629,0.1634,0.1646,0.1638,0.1639,0.1625,0.1649,0.1648,0.1648,0.1648,0.1697,0.1698,0,0,0,0,0,0,0.1607,0.1601,0.161,0.161,0.1619,0.162,0.1622,0.1622,0.1627,0.163,0.1632,0.1635,0.1639,0.1639,0.1639,0.1705,0.1648,0.1648,0.1647,0.1695,0.1697,0.1699,0,0,0,0,0,0,0.1607,0.1608,0.161,0.1608,0.1608,0.162,0.162,0.1622,0.1651,0.1631,0.1634,0.1665,0.1639,0.164,0.1664,0.1702,0.1648,0.1647,0.1693,0.1696,0.1698,0.1773,0,0,0,0,0,0,0.1606,0.1607,0.1626,0.1608,0.1609,0.1625,0.1619,0.1621,0.1651,0.1654,0.1659,0.166,0.164,0.1665,0.1664,0.17,0.1647,0.1691,0.1694,0.1697,0.1769,0.1778,0.1785,0,0,0,0,0,0.1606,0.1618,0.1626,0.1629,0.1629,0.1626,0.1626,0.1636,0.1652,0.1667,0.1675,0.1661,0.1683,0.1666,0.1664,0.1701,0.169,0.1693,0.1697,0.1765,0.1776,0.1785,0,0,0,0,0,0,0.1622,0.1621,0.163,0.1643,0.1649,0.1632,0.1651,0.1657,0.1673,0.169,0.1673,0.1674,0.1713,0.1695,0.1676,0.1725,0.1688,0.1691,0.174,0.175,0.1759,0.1762,0.1646,0,0,0,0,0,0.1634,0.1648,0.1643,0.1659,0.1666,0.1667,0.1676,0.1682,0.1687,0.1697,0.1701,0.1709,0.1718,0.1727,0.1728,0.1747,0.1745,0.1773,0.1782,0.1789,0.1792,0.183,0.1842,0.171,0.171,0.171,0,0,0.1646,0.1649,0.1658,0.1666,0.1672,0.168,0.1676,0.1698,0.1715,0.1695,0.1732,0.174,0.1731,0.1758,0.1774,0.1753,0.1826,0.1794,0.18,0.1798,0.1835,0.1848,0.186,0.1713,0.1712,0.1712,0,0,0.1661,0.1681,0.1694,0.1702,0.1721,0.1717,0.1734,0.174,0.1759,0.1786,0.1785,0.1816,0.1824,0.1826,0.1827,0.1882,0.1872,0.1893,0.1936,0.1974,0.1985,0.1994,0.201,0.202,0.1894,0.1895,0.1895,0,0.1681,0.1687,0.1699,0.1711,0.1722,0.1739,0.1752,0.1768,0.1785,0.1805,0.1813,0.1855,0.1853,0.1884,0.1909,0.1901,0.1917,0.1897,0.1985,0.1995,0.2003,0.2016,0.2027,0.1899,0.1898,0.1898,0.1897,0,0.1688,0.171,0.172,0.174,0.1757,0.1772,0.179,0.1823,0.1854,0.1866,0.1924,0.193,0.1955,0.1967,0.1955,0.2019,0.2008,0.1994,0.1959,0.2021,0.2031,0.2041,0.1904,0.1903,0.1902,0.1901,0,0,0.1683,0.1718,0.1726,0.1739,0.1773,0.1779,0.1826,0.1856,0.1892,0.1934,0.198,0.2015,0.2039,0.2042,0.2045,0.2078,0.2156,0.2073,0.2073,0.2087,0.2238,0.208,0.2075,0.2169,0.2171,0.2173,0.2221,0,0.1685,0.1709,0.1729,0.1759,0.1769,0.1806,0.1841,0.1883,0.1925,0.1976,0.2016,0.2061,0.2062,0.2092,0.213,0.2152,0.2186,0.2144,0.2176,0.2176,0.2028,0.2082,0.218,0.2228,0.223,0.2231,0.2233,0,0.1674,0.1693,0.1723,0.1762,0.1773,0.1803,0.1865,0.1901,0.1977,0.2017,0.2083,0.2113,0.2181,0.2171,0.225,0.2231,0.2247,0.2256,0.2257,0.2087,0.2035,0.2152,0.225,0.2248,0.2247,0.2246,0.2245,0,0.164,0.1683,0.1708,0.1721,0.1774,0.181,0.185,0.1923,0.1966,0.2059,0.2107,0.2178,0.2238,0.2276,0.231,0.2296,0.2383,0.2357,0.2225,0.2214,0.2309,0.2298,0.2412,0.2412,0.2412,0.2412,0.2412,0,0.1606,0.1629,0.1702,0.1712,0.1755,0.1805,0.1864,0.1918,0.2006,0.2052,0.2139,0.2182,0.2276,0.233,0.2339,0.231,0.2412,0.2237,0.2219,0.2339,0.2331,0.2316,0.2304,0.2414,0.2413,0.2413,0.2413,0,0.1554,0.1601,0.1635,0.1708,0.1739,0.1776,0.1872,0.1904,0.2008,0.2078,0.2116,0.2225,0.2283,0.2342,0.2404,0.2335,0.2324,0.2288,0.2416,0.2403,0.212,0.2112,0.2132,0.2127,0.2123,0.2119,0.2116,0,0.1521,0.1537,0.1629,0.1655,0.1694,0.1761,0.1796,0.1898,0.193,0.2074,0.2088,0.22,0.225,0.2212,0.2283,0.2277,0.2251,0.2226,0.2164,0.2113,0.2094,0.2093,0.209,0.2109,0.2108,0.2107,0.2106,0,0.146,0.1514,0.1545,0.1602,0.1649,0.1683,0.1746,0.1761,0.1868,0.1987,0.2005,0.2025,0.2085,0.211,0.213,0.2121,0.2226,0.218,0.2188,0.2129,0.2085,0.207,0.2073,0.2091,0.2093,0.2094,0.2095,0,0.1424,0.1435,0.149,0.1521,0.1578,0.1577,0.1623,0.1646,0.1694,0.1842,0.1845,0.1953,0.2064,0.203,0.2044,0.2025,0.1984,0.1903,0.1924,0.1942,0.1855,0.1769,0.1666,0,0,0,0,0,0.1374,0.1369,0.1397,0.1414,0.1462,0.1493,0.1567,0.1612,0.1722,0.1685,0.1757,0.1792,0.1807,0.1864,0.1805,0.1957,0.1997,0.1878,0.1916,0.2007,0.2025,0.1938,0,0,0,0,0,0,0.1339,0.1368,0.1362,0.1314,0.1306,0.1337,0.1382,0.1458,0.1437,0.1563,0.1583,0.1676,0.1723,0.1826,0.1771,0.1786,0.1768,0.1947,0.1942,0.1997,0.2013,0.2027,0.1944,0,0,0,0,0]},{"header":{"parameterUnit":"m.s-1","parameterCategory":2,"la1":30.2991,"la2":30.254,"lo1":-89.0895,"lo2":-89.0444,"dy":0.0017,"dx":0.0017,"nx":28,"ny":28,"refTime":"2024-05-09T21:00:00:Z","depth":"4","parameterNumber":3,"parameterNumberName":"V-component_of_CURRENTS"},"data":[0,0,0,0,0,0,0,0,0,0,0,0,0,0,0,0,0,0,0,0,0,0,0,0,0,0,0,0,0,0,0,0,0,0,0,0,0,0,0,0,0,0,0,0,0,0,0,0,0,0,0,0,0,0,0,0,0,0,0.0149,0.0149,0,0.0137,0.0136,0.0136,0.0128,0.0127,0.0127,0.0127,0.0109,0.0108,0.0108,0,0,0,0,0,0,0,0,0,0,0,0,0,0.0143,0.0143,0.0149,0.0149,0.0148,0.0137,0.0136,0.0136,0.0128,0.0127,0.0127,0.0127,0.0109,0.0108,0.0108,0,0,0,0,0,0,0,0,0,0,0,0,0,0.014,0.0143,0.0149,0.0143,0.0142,0.0137,0.0136,0.0136,0.0128,0.0127,0.0127,0.0127,0.0109,0.0108,0.0108,0.0106,0,0,0.0106,0.0105,0,0,0,0,0,0,0,0,0.014,0.014,0.0144,0.0143,0.0142,0.0134,0.0128,0.0126,0.0128,0.0133,0.0127,0.0127,0.0117,0.0115,0.0113,0.0105,0.0104,0.0106,0.0105,0.0105,0.0105,0,0,0,0,0,0,0,0.014,0.014,0.0144,0.0144,0.0143,0.0133,0.0133,0.0127,0.0125,0.0132,0.0132,0.0131,0.0116,0.0114,0.0113,0.0104,0.0106,0.0105,0.0105,0.0104,0.0105,0.0105,0,0,0,0,0,0,0.0143,0.014,0.0144,0.0143,0.0141,0.0134,0.0133,0.0136,0.0125,0.0124,0.0131,0.013,0.0115,0.0113,0.0112,0.0128,0.0105,0.0104,0.0104,0.0104,0.0105,0.0105,0,0,0,0,0,0,0.0143,0.0144,0.0145,0.0141,0.0141,0.0134,0.0138,0.0136,0.0138,0.0124,0.0122,0.0135,0.0115,0.0113,0.0115,0.0126,0.0104,0.0103,0.0104,0.0105,0.0105,0.0147,0,0,0,0,0,0,0.0143,0.0144,0.0149,0.0142,0.0141,0.0148,0.0138,0.0136,0.0138,0.0137,0.0127,0.0125,0.0115,0.0116,0.0115,0.0125,0.0103,0.0103,0.0104,0.0105,0.0145,0.0149,0.0152,0,0,0,0,0,0.0143,0.0151,0.015,0.015,0.0149,0.0148,0.0148,0.0142,0.0138,0.0143,0.0137,0.0125,0.012,0.0116,0.0114,0.0124,0.0103,0.0104,0.0105,0.0143,0.0148,0.0152,0,0,0,0,0,0,0.015,0.0151,0.0149,0.0157,0.0156,0.0147,0.0152,0.0146,0.0145,0.0147,0.0132,0.013,0.0135,0.0124,0.012,0.0126,0.0109,0.0109,0.0139,0.0143,0.0146,0.0157,0.0102,0,0,0,0,0,0.0155,0.0163,0.0159,0.0166,0.0168,0.0161,0.0161,0.0158,0.0154,0.0154,0.0146,0.014,0.0136,0.0135,0.0129,0.0134,0.0115,0.0138,0.0142,0.0145,0.0152,0.0131,0.0134,0.0108,0.0108,0.0108,0,0,0.0159,0.0161,0.0165,0.0169,0.0168,0.0177,0.0161,0.0166,0.0175,0.0152,0.0164,0.0152,0.014,0.0146,0.0147,0.0139,0.0141,0.0146,0.0149,0.0154,0.0132,0.0135,0.0137,0.0109,0.0109,0.0109,0,0,0.0173,0.0175,0.0188,0.0191,0.0194,0.0192,0.0196,0.0192,0.0193,0.0201,0.0187,0.0184,0.0179,0.0172,0.0169,0.0188,0.016,0.0184,0.0213,0.0192,0.0194,0.0196,0.0173,0.0172,0.0187,0.0187,0.0187,0,0.0178,0.0196,0.0191,0.0204,0.0213,0.0202,0.022,0.0219,0.0217,0.0224,0.0212,0.0205,0.0193,0.02,0.0207,0.0197,0.0178,0.0198,0.0197,0.0198,0.0199,0.0175,0.0173,0.0189,0.0188,0.0188,0.0188,0,0.0203,0.0219,0.0227,0.0244,0.0251,0.0265,0.0265,0.0272,0.027,0.027,0.0276,0.0254,0.0252,0.0244,0.0233,0.0235,0.0218,0.0203,0.0187,0.0204,0.0177,0.0175,0.0192,0.0191,0.019,0.019,0,0,0.0214,0.024,0.0245,0.0265,0.0276,0.0287,0.0305,0.0321,0.0342,0.0327,0.0345,0.033,0.0316,0.031,0.0288,0.0269,0.0255,0.0243,0.0241,0.0222,0.0208,0.019,0.0185,0.0239,0.0239,0.0239,0.0186,0,0.0238,0.0276,0.0282,0.0322,0.0344,0.0344,0.0367,0.0379,0.0383,0.0396,0.0368,0.0376,0.0341,0.0342,0.0317,0.0276,0.0252,0.0271,0.0193,0.0191,0.0174,0.0183,0.0239,0.0184,0.0183,0.0183,0.0183,0,0.0263,0.0288,0.0332,0.0374,0.0384,0.0405,0.0445,0.0465,0.0475,0.0478,0.047,0.0447,0.0424,0.0387,0.0318,0.0332,0.0277,0.0234,0.0231,0.02,0.0169,0.0163,0.0178,0.0178,0.0179,0.0179,0.0179,0,0.0282,0.0326,0.0366,0.0379,0.042,0.0442,0.0468,0.0493,0.0525,0.0531,0.0548,0.0507,0.0497,0.0421,0.0334,0.0327,0.0248,0.0227,0.0155,0.0152,0.0166,0.0164,0.0173,0.0173,0.0173,0.0173,0.0173,0,0.0307,0.034,0.038,0.0402,0.0463,0.0478,0.0541,0.0559,0.059,0.0637,0.0596,0.0607,0.0506,0.0447,0.0353,0.025,0.0261,0.0163,0.014,0.0184,0.0185,0.0163,0.0163,0.0171,0.0172,0.0172,0.0172,0,0.0323,0.0346,0.0398,0.0449,0.0475,0.0519,0.0595,0.0638,0.0662,0.0716,0.0721,0.0687,0.0614,0.05,0.0378,0.0288,0.0182,0.0139,0.0197,0.0178,0.0092,0.0095,0.0056,0.0055,0.0054,0.0054,0.0053,0,0.0334,0.0361,0.0435,0.0474,0.0501,0.0572,0.0625,0.0673,0.0718,0.0765,0.0788,0.074,0.0698,0.0518,0.0388,0.0203,0.017,0.0106,0.0094,0.01,0.0081,0.0085,0.0089,0.0052,0.0051,0.0051,0.0051,0,0.0355,0.0381,0.0425,0.0508,0.0569,0.0646,0.072,0.0759,0.0817,0.0838,0.0847,0.0759,0.0676,0.0524,0.0382,0.0246,0.0142,0.0096,0.0096,0.0085,0.0094,0.0077,0.0082,0.0048,0.0048,0.0049,0.0049,0,0.0373,0.0405,0.0464,0.0539,0.062,0.0697,0.0737,0.0791,0.0841,0.0882,0.0882,0.0795,0.0745,0.0547,0.0416,0.0281,0.0238,0.0176,0.0172,0.0174,0.0216,0.0246,0.0231,0,0,0,0,0,0.0387,0.0424,0.0491,0.0572,0.0652,0.0702,0.0792,0.0824,0.0878,0.0889,0.0888,0.0809,0.063,0.0556,0.0419,0.0382,0.0203,0.0212,0.0127,0.0031,0.0035,0.0063,0,0,0,0,0,0,0.0394,0.0454,0.0487,0.0587,0.0644,0.0738,0.0797,0.0834,0.0839,0.0869,0.078,0.0751,0.0577,0.0707,0.0408,0.037,0.029,0.0136,0.0132,0.003,0.0033,0.0035,0.0065,0,0,0,0,0]}]]